www.pogodaiklimat.ru
Время
и дата
14:53 03.07
15:53 03.07
16:53 03.07
17:53 03.07
18:53 03.07
19:53 03.07
20:53 03.07
21:53 03.07
22:53 03.07
23:53 03.07
00:53 04.07
01:53 04.07
02:53 04.07
03:53 04.07
04:53 04.07
05:53 04.07
06:53 04.07
07:53 04.07
08:53 04.07
09:53 04.07
10:53 04.07
11:53 04.07
12:53 04.07
13:15 04.07
13:37 04.07
13:53 04.07
14:53 04.07
15:06 04.07
15:53 04.07
16:53 04.07
17:53 04.07
18:53 04.07
19:06 04.07
19:30 04.07
19:53 04.07
20:53 04.07
21:53 04.07
22:53 04.07
23:53 04.07
00:53 05.07
01:53 05.07
02:53 05.07
03:53 05.07
04:53 05.07
05:53 05.07
06:53 05.07
07:53 05.07
08:53 05.07
Ветер
(напр.,м/с)
Видим. Явления Облачность Т
(С)
Тd
(С)
f
(%)
Тe
(С)
Тes
(С)
Комфортность P
(гПа)
Po
(гПа)
Тmin
(С)
Tmax
(С)
R
(мм)
R24
(мм)
S
(см)
штиль 0 16 км ясно +37.2 +13.3 24 +37 +63 опасность
солнечного
удара
1006.2 922.0
штиль 0 16 км 10/0 3000 м
[Ac]
+36.7 +13.9 26 +37 +43 очень
жарко
1005.7 921.7
В 2 16 км 2/0 3000 м
[Ac]
+35.6 +15.0 29 +37 +41 душно 1005.2 921.1 +33.3 +38.3
штиль 0 16 км 8/0 3300 м
[Ac]
+36.1 +12.8 25 +36 +39 очень
жарко
1005.2 921.1
В 2 16 км 8/0 3000 м
[Ac]
+35.6 +13.9 27 +36 +37 очень
жарко
1005.6 921.4
З 2 16 км 10/0 3000 м
[Ac]
+35.0 +8.9 20 +33 +33 жарко 1006.2 922.0
З 1 16 км 5/0 3600 м
[Ac]
+33.3 +8.9 22 +32 +32 жарко 1007.2 922.9
ЮЗ 1 16 км 10/0 3000 м
[Ac]
+31.7 +10.6 27 +31 +31 жарко 1008.2 923.9
штиль 0 16 км ясно +31.1 +11.1 29 +31 +31 жарко 1008.5 924.2 +31.1 +36.7
В 1 16 км ясно +29.4 +15.0 42 +32 +32 душно 1008.6 924.2
Ю 1 16 км ясно +29.4 +13.9 39 +31 +31 жарко 1008.4 923.9
ЮВ 1 16 км ясно +28.9 +15.0 43 +31 +31 жарко 1008.2 923.9
ЮВ 1 16 км ясно +27.8 +13.9 42 +30 +30 жарко 1008.4 924.2
Ю 1 16 км ясно +28.3 +12.8 38 +30 +30 жарко 1008.6 924.2
ЮВ 1 16 км ясно +27.2 +13.9 44 +29 +29 жарко 1009.0 924.5 +27.2 +31.1
В 1 16 км ясно +26.1 +16.1 54 +29 +29 жарко 1009.6 924.8
ЮВ 2 16 км ясно +28.3 +15.6 46 +31 +31 душно 1009.8 925.4
Ю 1 16 км ясно +30.0 +14.4 39 +32 +34 жарко 1010.1 925.4
нст 1 16 км ясно +31.1 +15.0 38 +33 +38 душно 1010.3 925.7
Ю 2 16 км ясно +32.2 +15.0 35 +34 +41 душно 1010.1 925.7
штиль 0 16 км 2/0 3000 м
[Ac]
+33.9 +15.6 33 +36 +54 опасность
солнечного
удара
1009.9 925.4 +26.1 +33.9
нст 1
{3}
16 км 2/0 2100 м
[Ac]
+34.4 +15.0 31 +36 +50 душно 1009.2 924.8
нст 1 16 км 2/0 2850 м
[Ac]
+35.0 +15.0 30 +36 +52 опасность
солнечного
удара
1008.4 924.2
штиль 0 0 м гроза 5/0 2250 м
[Ac]
+33.9 +15.0 32 +36 +54 опасность
солнечного
удара
924.2
Ю 3 16 км 8/0 2400 м
[Ac]
+34.4 +15.6 33 +37 +40 очень
душно
924.2
ЮЗ 2 16 км 8/0 2250 м
[Ac]
+32.2 +16.7 39 +35 +42 очень
душно
1008.5 923.9
ЮЗ 3 16 км слабый дождь 5/0 2700 м
[Ac]
+31.1 +17.8 45 1009.2
ЮЗ 2 16 км 5/0 2700 м
[Ac]
+30.6 +17.8 46
З 1 16 км ясно +30.6 +17.2 45 +35 +49 очень
душно
1009.2 924.2
нст 1 16 км ясно +31.7 +16.7 41 +35 +45 очень
душно
1008.5 923.6 +30.6 +36.1
нст 1 16 км ясно +33.3 +17.2 38 +37 +42 очень
душно
1008.1 923.2
В 1 16 км ясно +33.3 +16.7 37 +36 +38 очень
душно
1007.9 923.6
В 1 0 м гроза ясно +33.3 +16.7 37 +36 +36 очень
душно
923.6
нст 1 16 км ясно +32.8 +16.7 38 +36 +36 очень
душно
923.6
ЮЗ 2 16 км 2/0 3300 м
[Ac]
+30.0 +17.2 46 +34 +34 очень
душно
1008.5 923.9
ЮВ 1 16 км 2/0 3600 м
[Ac]
+31.1 +16.7 42 +34 +34 душно 1008.6 924.2
нст 1 16 км 5/0 2400 м
[Ac]
+30.6 +16.7 43 +34 +34 очень
душно
1009.2 924.8
Ю 2 16 км 5/0 2250 м
[Ac]
+29.4 +17.8 50 +34 +34 очень
душно
1009.7 925.1 +29.4 +33.9
Ю 2 16 км 5/0 2250 м
[Ac]
+28.9 +17.8 51 +33 +33 очень
душно
1009.7 925.1
Ю 1 16 км 8/0 2100 м
[Ac]
+28.9 +17.2 49 +33 +33 очень
душно
1009.9 925.4
Ю 1 16 км ясно +28.3 +17.8 53 +33 +33 очень
душно
1009.8 925.1
В 1 16 км ясно +27.2 +17.8 56 +31 +31 душно 1009.9 924.8
ЮВ 1 16 км ясно +26.7 +17.8 58 +31 +31 душно 1010.5 925.4
ЮВ 1 16 км ясно +26.1 +17.8 60 +30 +30 душно 1010.8 925.7 +26.1 +29.4
ЮВ 1 16 км ясно +26.1 +17.8 60 +30 +30 душно 1010.8 925.7
В 1 16 км ясно +27.8 +17.8 55 +32 +33 душно 1010.9 926.0
Ю 1 16 км ясно +28.3 +17.8 53 +33 +35 очень
душно
1011.4 926.3
В 1 16 км ясно +30.6 +17.8 46 +35 +41 очень
душно
1010.8 926.0
Местоположение метеостанции Tucson International Airport: широта 32.1314 долгота -110.9553 высота над уровнем моря 776 м.
В архиве по умолчанию представлена погода в Тусоне за последние 1-2 суток. Обновление информации о фактической погоде в базе происходит ежечасно! Архивные данные за месяц целиком и за предыдущие месяцы Вы можете получить, выбрав интересующий диапазон дат из раскрывающегося списка и нажав кнопку "Ввод!".
Внимание! Архив погоды МЕТАР в базе сайта по станциям, не включенным в климатический монитор, хранится не более 60 дней. Нет смысла пытаться выбрать более раннюю дату.
*Определитесь, кто Вы:
Внимание! Время в таблицах - местное (без учета летнего времени). Для получения всемирного времени необходимо вычесть поправку, которая равна -7 ч.
Смотрите также архив погоды в соседних городах и на ближайших метеорологических станциях:
Партнеры нашего сайта:      
Пояснения к столбцам:
  • Ветер - указаны скорость ветра в м/с - средняя за 10 мин, порывы в срок и между сроками (в фигурных скобках) и направление, откуда дует ветер: С - северный,
  • СВ - северо-восточный, В - восточный, ЮВ - юго-восточный, Ю - южный, ЮЗ - юго-западный, З - западный, СЗ - северо-западный.
  • Видимость - горизонтальная дальность видимости в метрах или километрах. При видимости от 1 до 10 км при отсутствии осадков обычно наблюдается дымка, при ухудшении видимости до 1 км и менее - туман. В сухую погоду видимость может ухудшаться дымом, пылью или мглою.
  • Явления - указаны атмосферные явления, наблюдавшиеся в срок или в последний час перед сроком; фигурными скобками обозначены явления, наблюдавшиеся между сроками (за 1-3 часа до срока); квадратными скобками обозначены град или гололедные отложения с указанием их диаметра в мм.
  • Облачность - указаны через наклонную черту общая и нижняя облачность в баллах и высота нижней границы облаков в метрах; квадратными скобками обозначены формы облаков: Ci - перистые, Cs - перисто-слоистые, Cc - перисто-кучевые, Ac - высококучевые, As - высокослоистые, Sc - слоисто-кучевые, Ns - слоисто-дождевые, Cu - кучевые, Cb - кучево-дождевые. Подробнее классификацию облаков см. в Атласе облаков (PDF).
  • T - Температура воздуха - температура, измеренная на высоте 2 м над землей.
  • Td - Температура точки росы - температура, при понижении до которой содержащийся в воздухе водяной пар достигнет насыщения.
  • f - Относительная влажность воздуха - влажноcть воздуха, измеренная на высоте 2 м над землей.
  • Te - Эффективная температура - температура, которую ощущает одетый по сезону человек в тени. Характеристика душности погоды. При расчете учитывается влияние влажности воздуха и скорости ветра на теплоощущения человека.
  • Tes - Эффективная температура на солнце - температура, которую ощущает человек, с поправкой на солнечный нагрев. Характеристика знойности погоды. Зависит от высоты солнца над горизонтом, облачности и скорости ветра. Ночью, в пасмурную погоду, а также при ветре 12 м/с и более поправка равна нулю.
  • P - Атмосферное давление - приведенное к уровню моря атмосферное давление.
  • Po - Атмосферное давление - измеренное на уровне метеостанции атмосферное давление.
  • Tmin - Минимальная температура - минимум температуры воздуха на высоте 2 м над землей.
  • Tmax - Максимальная температура - максимум температуры воздуха на высоте 2 м над землей.
  • R - Количество осадков - Количество выпавших осадков за период времени, мм. При наведении курсора мыши на число - период времени, за который выпало указанное количество осадков.
  • R24 - Количество осадков - Количество выпавших осадков за 24 часа, мм.
  • S - Снежный покров - Высота снежного покрова, см. При наведении курсора мыши на число - состояние снежного покрова и степень покрытия местности в баллах.